Change the Weather History Date:

Friday, May 10, 2013

  Actual Average (KCBG) Record (KCBG)
Temperature  
Mean Temperature 47 °F -  
Max Temperature 63 °F 65 °F 87 °F (2007)
Min Temperature 31 °F 42 °F 26 °F (1981)
Degree Days  
Heating Degree Days 18    
Moisture  
Dew Point 27 °F    
Average Humidity 48    
Maximum Humidity 81    
Minimum Humidity 20    
Precipitation  
Precipitation 0.00 in - - ()
Sea Level Pressure  
Sea Level Pressure 30.04 in    
Wind  
Wind Speed 7 mph (NNE)    
Max Wind Speed 13 mph    
Max Gust Speed 23 mph    
Visibility 10 miles    
Events      
Averages and records for this station are not official NWS values.
T = Trace of Precipitation, MM = Missing Value Source: NWS Daily Summary

Daily Weather History Graph

Daily Weather History Graph

Search for Another Location

Airport or City:

Trip Planner

Search our weather history database for the weather conditions in past years. The results will help you decide how hot, cold, wet, or windy it might be!

Date:

Astronomy

May. 10, 2013 Rise Set
Actual Time 5:46 AM CDT 8:30 PM CDT
Civil Twilight 5:12 AM CDT 9:05 PM CDT
Nautical Twilight 4:29 AM CDT 9:48 PM CDT
Astronomical Twilight 3:38 AM CDT 10:39 PM CDT
Moon 6:10 AM CDT (5/10) 9:21 PM CDT (5/10)
Length of Visible Light 15h 52m
Length of Day
14h 44m
New Moon, 0% of the Moon is Illuminated
May 10
New Moon
May 17
First Quarter
May 24
Full
May 31
Last Quarter
Jun 8
New

Hourly Weather History & Observations

Time (CDT) Temp. Windchill Dew Point Humidity Pressure Visibility Wind Dir Wind Speed Gust Speed Precip Events Conditions
12:15 AM 39.4 °F 32.7 °F 28.2 °F 64% 30.15 in 10.0 mi NNE 10.4 mph 17.3 mph N/A   Scattered Clouds
12:35 AM 38.3 °F 31.4 °F 28.4 °F 68% 30.15 in 10.0 mi NNE 10.4 mph - N/A   Scattered Clouds
1:15 AM 36.0 °F 28.5 °F 29.1 °F 76% 30.15 in 10.0 mi NNE 10.4 mph - N/A   Clear
1:35 AM 35.4 °F 27.8 °F 28.9 °F 77% 30.15 in 10.0 mi NNE 10.4 mph - N/A   Clear
1:56 AM 34.7 °F 26.9 °F 28.4 °F 78% 30.15 in 10.0 mi NNE 10.4 mph - N/A   Clear
2:15 AM 34.0 °F 26.6 °F 28.2 °F 79% 30.15 in 10.0 mi NNE 9.2 mph - N/A   Clear
2:35 AM 33.4 °F 25.9 °F 28.0 °F 81% 30.15 in 10.0 mi NNE 9.2 mph - N/A   Clear
2:56 AM 33.1 °F 26.1 °F 27.7 °F 81% 30.14 in 10.0 mi NNE 8.1 mph - N/A   Clear
3:15 AM 32.9 °F 25.9 °F 27.5 °F 81% 30.14 in 10.0 mi NNE 8.1 mph - N/A   Clear
3:56 AM 32.4 °F 26.0 °F 27.0 °F 80% 30.14 in 10.0 mi NNE 6.9 mph - N/A   Clear
4:15 AM 32.2 °F 25.0 °F 26.6 °F 80% 30.14 in 10.0 mi NNE 8.1 mph - N/A   Clear
4:35 AM 32.2 °F 25.8 °F 26.6 °F 80% 30.14 in 10.0 mi NNE 6.9 mph - N/A   Clear
4:56 AM 32.0 °F 24.8 °F 26.4 °F 80% 30.14 in 10.0 mi NNE 8.1 mph - N/A   Clear
5:15 AM 32.0 °F 24.8 °F 26.2 °F 79% 30.14 in 10.0 mi NNE 8.1 mph - N/A   Clear
5:36 AM 32.0 °F 25.6 °F 26.2 °F 79% 30.14 in 10.0 mi NNE 6.9 mph - N/A   Clear
5:56 AM 31.6 °F 24.4 °F 26.4 °F 81% 30.14 in 10.0 mi NNE 8.1 mph - N/A   Clear
6:15 AM 32.0 °F 25.6 °F 26.6 °F 80% 30.14 in 10.0 mi NNE 6.9 mph - N/A   Clear
6:36 AM 32.4 °F 26.9 °F 27.1 °F 81% 30.14 in 10.0 mi NNE 5.8 mph - N/A   Clear
7:15 AM 34.5 °F 28.6 °F 28.0 °F 77% 30.14 in 10.0 mi NNE 6.9 mph - N/A   Clear
7:36 AM 35.8 °F 30.9 °F 28.4 °F 75% 30.14 in 10.0 mi NNE 5.8 mph - N/A   Clear
8:15 AM 38.3 °F 31.9 °F 27.7 °F 66% 30.14 in 10.0 mi NE 9.2 mph - N/A   Clear
8:36 AM 40.1 °F 34.7 °F 28.2 °F 63% 30.14 in 10.0 mi NE 8.1 mph - N/A   Clear
8:56 AM 41.4 °F 35.7 °F 27.9 °F 59% 30.14 in 10.0 mi NE 9.2 mph - N/A   Clear
9:15 AM 43.0 °F 37.7 °F 28.2 °F 56% 30.13 in 10.0 mi North 9.2 mph - N/A   Clear
9:36 AM 44.8 °F 41.0 °F 27.7 °F 51% 30.12 in 10.0 mi NE 6.9 mph - N/A   Clear
9:55 AM 45.5 °F 41.8 °F 28.0 °F 51% 30.12 in 10.0 mi ENE 6.9 mph - N/A   Clear
10:15 AM 46.6 °F - 26.6 °F 46% 30.11 in 10.0 mi NE 4.6 mph - N/A   Clear
10:35 AM 48.0 °F - 27.5 °F 45% 30.11 in 10.0 mi North 5.8 mph - N/A   Clear
10:55 AM 49.1 °F - 26.4 °F 41% 30.10 in 10.0 mi NNE 9.2 mph - N/A   Clear
11:16 AM 50.5 °F - 26.2 °F 39% 30.10 in 10.0 mi North 4.6 mph - N/A   Clear
11:35 AM 51.8 °F - 26.8 °F 38% 30.11 in 10.0 mi NNE 6.9 mph - N/A   Clear
12:16 PM 53.2 °F - 26.1 °F 35% 30.09 in 10.0 mi North 6.9 mph - N/A   Clear
12:36 PM 54.5 °F - 25.3 °F 32% 30.08 in 10.0 mi East 3.5 mph - N/A   Clear
12:55 PM 55.8 °F - 25.9 °F 32% 30.07 in 10.0 mi North 5.8 mph - N/A   Clear
1:16 PM 56.8 °F - 25.0 °F 29% 30.06 in 10.0 mi North 6.9 mph - N/A   Clear
1:36 PM 58.1 °F - 26.1 °F 29% 30.05 in 10.0 mi North 3.5 mph - N/A   Clear
1:55 PM 58.1 °F - 24.8 °F 28% 30.04 in 10.0 mi Calm Calm - N/A   Clear
2:16 PM 59.0 °F - 23.0 °F 25% 30.04 in 10.0 mi West 4.6 mph - N/A   Clear
2:35 PM 59.4 °F - 21.7 °F 23% 30.03 in 10.0 mi Calm Calm - N/A   Clear
2:55 PM 59.9 °F - 24.4 °F 26% 30.02 in 10.0 mi North 4.6 mph - N/A   Clear
3:16 PM 60.1 °F - 24.3 °F 25% 30.01 in 10.0 mi Calm Calm - N/A   Clear
3:36 PM 61.5 °F - 24.1 °F 24% 30.01 in 10.0 mi Calm Calm - N/A   Clear
3:55 PM 61.5 °F - 24.3 °F 24% 29.99 in 10.0 mi SW 8.1 mph - N/A   Clear
4:16 PM 61.5 °F - 19.2 °F 20% 29.99 in 10.0 mi Calm Calm - N/A   Clear
4:36 PM 62.8 °F - 24.1 °F 23% 29.98 in 10.0 mi West 5.8 mph - N/A   Clear
4:55 PM 62.2 °F - 22.3 °F 22% 29.97 in 10.0 mi SSW 5.8 mph - N/A   Clear
5:16 PM 62.6 °F - 23.2 °F 22% 29.96 in 10.0 mi SSW 3.5 mph - N/A   Clear
5:36 PM 61.9 °F - 22.1 °F 22% 29.94 in 10.0 mi Calm Calm - N/A   Clear
5:55 PM 62.1 °F - 22.8 °F 22% 29.94 in 10.0 mi SSW 3.5 mph - N/A   Clear
6:16 PM 62.6 °F - 24.8 °F 24% 29.94 in 10.0 mi Calm Calm - N/A   Clear
6:36 PM 62.6 °F - 23.5 °F 23% 29.93 in 10.0 mi West 4.6 mph - N/A   Clear
6:55 PM 63.1 °F - 24.4 °F 23% 29.92 in 10.0 mi West 4.6 mph - N/A   Clear
7:16 PM 62.6 °F - 25.0 °F 24% 29.92 in 10.0 mi West 5.8 mph - N/A   Clear
7:35 PM 59.7 °F - 26.1 °F 28% 29.91 in 10.0 mi Calm Calm - N/A   Clear
7:56 PM 59.0 °F - 26.4 °F 29% 29.90 in 10.0 mi Calm Calm - N/A   Clear
8:15 PM 57.7 °F - 28.6 °F 33% 29.90 in 10.0 mi Calm Calm - N/A   Scattered Clouds
8:36 PM 56.3 °F - 28.0 °F 34% 29.90 in 10.0 mi Calm Calm - N/A   Mostly Cloudy
8:55 PM 54.7 °F - 32.0 °F 42% 29.89 in 10.0 mi Calm Calm - N/A   Overcast
9:16 PM 54.7 °F - 30.0 °F 39% 29.89 in 10.0 mi Calm Calm - N/A   Overcast
9:36 PM 55.2 °F - 28.9 °F 37% 29.90 in 10.0 mi Calm Calm - N/A   Overcast
9:55 PM 53.4 °F - 33.3 °F 46% 29.89 in 10.0 mi Calm Calm - N/A   Overcast
10:16 PM 53.4 °F - 33.6 °F 47% 29.89 in 10.0 mi South 3.5 mph - N/A   Overcast
10:35 PM 54.5 °F - 32.0 °F 42% 29.88 in 10.0 mi South 4.6 mph - N/A   Overcast
10:55 PM 56.3 °F - 28.0 °F 34% 29.87 in 10.0 mi SSW 3.5 mph - N/A   Overcast
11:16 PM 55.4 °F - 29.8 °F 38% 29.88 in 10.0 mi Calm Calm - N/A   Overcast
11:35 PM 53.6 °F - 32.0 °F 44% 29.89 in 10.0 mi NNW 5.8 mph - N/A   Overcast
11:55 PM 55.8 °F - 34.2 °F 44% 29.89 in 10.0 mi WNW 12.7 mph 23.0 mph N/A   Overcast